Location: McFarlands Corners
(41.4117°N, 81.3382°W)
Time: 00:50:32
(UTC+00:00)

Tiros 1 - Pass Details

Date: 22 February 2026
Orbit: 618 x 649 km, 48.4° (Epoch: 10 March)

Event Time Altitude Azimuth Distance (km) Brightness Sun altitude
Rises 14:36:59 0° 278° (W) 2,914 10.0 23.7°
Reaches altitude 10° 14:39:29 10° 288° (WNW) 2,002 9.2 24.1°
Maximum altitude 14:43:42 35° 354° (N) 1,018 8.0 24.7°
Drops below altitude 10° 14:47:53 10° 61° (ENE) 1,988 10.0 25.3°
Sets 14:50:22 0° 70° (ENE) 2,891 10.9 25.6°
